Time,TemperatureF,DewpointF,PressureIn,WindDirection,WindDirectionDegrees,WindSpeedMPH,WindSpeedGustMPH,Humidity,HourlyPrecipIn,Conditions,Clouds,dailyrainin,SoftwareType,DateUTC
2013-01-28 00:01:00,43.2,33.3,29.26,NE,44,0.0,0.0,68,0.00,,SKC,0.00,VWS V14.00,2013-01-28 05:01:00,
2013-01-28 00:06:00,43.0,33.2,29.26,NE,44,0.0,0.0,68,0.00,,SKC,0.00,VWS V14.00,2013-01-28 05:06:00,
2013-01-28 00:11:00,43.2,33.3,29.26,NE,44,0.0,0.0,68,0.00,,SKC,0.00,VWS V14.00,2013-01-28 05:11:00,
2013-01-28 00:16:00,43.0,33.5,29.26,NE,44,0.0,0.0,69,0.00,,SKC,0.00,VWS V14.00,2013-01-28 05:16:00,
2013-01-28 00:21:00,43.0,33.5,29.26,NE,44,0.0,0.0,69,0.00,,SKC,0.00,VWS V14.00,2013-01-28 05:21:00,
2013-01-28 00:26:00,43.0,33.5,29.26,NE,44,0.0,0.0,69,0.00,,SKC,0.00,VWS V14.00,2013-01-28 05:26:00,
2013-01-28 00:29:00,43.0,33.5,29.26,NE,44,0.0,0.0,69,0.00,,SKC,0.00,VWS V14.00,2013-01-28 05:29:00,
2013-01-28 00:36:00,43.0,33.5,29.26,NE,44,0.0,0.0,69,0.00,,SKC,0.00,VWS V14.00,2013-01-28 05:36:00,
2013-01-28 00:41:00,42.8,33.3,29.26,NE,44,0.0,0.0,69,0.00,,SKC,0.00,VWS V14.00,2013-01-28 05:41:00,
2013-01-28 00:46:00,42.8,33.3,29.26,NE,44,0.0,0.0,69,0.00,,SKC,0.00,VWS V14.00,2013-01-28 05:46:00,
2013-01-28 00:51:00,42.8,33.3,29.26,NE,44,0.0,0.0,69,0.00,,SKC,0.00,VWS V14.00,2013-01-28 05:51:00,
2013-01-28 00:56:00,42.8,33.3,29.26,NE,44,0.0,0.0,69,0.00,,SKC,0.00,VWS V14.00,2013-01-28 05:56:00,
2013-01-28 01:01:00,42.8,33.3,29.26,NE,44,0.0,0.0,69,0.00,,SKC,0.00,VWS V14.00,2013-01-28 06:01:00,
2013-01-28 01:06:00,42.6,33.5,29.26,NE,44,0.0,0.0,70,0.00,,SKC,0.00,VWS V14.00,2013-01-28 06:06:00,
2013-01-28 01:11:00,42.4,33.4,29.26,NE,44,0.0,0.0,70,0.00,,SKC,0.00,VWS V14.00,2013-01-28 06:11:00,
2013-01-28 01:16:00,42.4,33.4,29.29,NE,44,0.0,0.0,70,0.00,,SKC,0.00,VWS V14.00,2013-01-28 06:16:00,
2013-01-28 01:21:00,42.4,33.4,29.29,NE,44,0.0,0.0,70,0.00,,SKC,0.00,VWS V14.00,2013-01-28 06:21:00,
2013-01-28 01:27:00,42.4,33.4,29.29,NE,44,0.0,0.0,70,0.00,,SKC,0.00,VWS V14.00,2013-01-28 06:27:00,
2013-01-28 01:32:00,42.3,33.2,29.26,NE,44,0.0,0.0,70,0.00,,SKC,0.00,VWS V14.00,2013-01-28 06:32:00,
2013-01-28 01:37:00,42.3,33.2,29.26,NE,44,0.0,0.0,70,0.00,,SKC,0.00,VWS V14.00,2013-01-28 06:37:00,
2013-01-28 01:42:00,42.3,33.5,29.26,NE,44,0.0,0.0,71,0.00,,SKC,0.00,VWS V14.00,2013-01-28 06:42:00,
2013-01-28 01:47:00,42.3,33.5,29.26,NE,44,0.0,0.0,71,0.00,,SKC,0.00,VWS V14.00,2013-01-28 06:47:00,
2013-01-28 01:52:00,42.1,33.4,29.26,NE,44,0.0,0.0,71,0.00,,SKC,0.00,VWS V14.00,2013-01-28 06:52:00,
2013-01-28 01:57:00,42.1,33.4,29.26,NE,44,0.0,0.0,71,0.00,,SKC,0.00,VWS V14.00,2013-01-28 06:57:00,
2013-01-28 02:02:00,41.9,33.2,29.26,NE,44,0.0,0.0,71,0.00,,SKC,0.00,VWS V14.00,2013-01-28 07:02:00,
2013-01-28 02:07:00,41.9,33.2,29.26,NE,44,0.0,0.0,71,0.00,,SKC,0.00,VWS V14.00,2013-01-28 07:07:00,
2013-01-28 02:12:00,41.7,33.0,29.26,NE,44,0.0,0.0,71,0.00,,SKC,0.00,VWS V14.00,2013-01-28 07:12:00,
2013-01-28 02:17:00,41.5,32.8,29.29,NE,44,0.0,0.0,71,0.00,,SKC,0.00,VWS V14.00,2013-01-28 07:17:00,
2013-01-28 02:22:00,41.5,32.8,29.29,NE,44,0.0,0.0,71,0.00,,SKC,0.00,VWS V14.00,2013-01-28 07:22:00,
2013-01-28 02:27:00,41.4,32.7,29.29,NE,44,0.0,0.0,71,0.00,,SKC,0.00,VWS V14.00,2013-01-28 07:27:00,
2013-01-28 02:32:00,41.4,32.7,29.29,NE,44,0.0,0.0,71,0.00,,SKC,0.00,VWS V14.00,2013-01-28 07:32:00,
2013-01-28 02:37:00,41.5,33.2,29.29,NE,44,0.0,0.0,72,0.00,,SKC,0.00,VWS V14.00,2013-01-28 07:37:00,
2013-01-28 02:42:00,41.5,33.2,29.29,NE,44,0.0,0.0,72,0.00,,SKC,0.00,VWS V14.00,2013-01-28 07:42:00,
2013-01-28 02:47:00,41.5,33.2,29.26,NE,44,0.0,0.0,72,0.00,,SKC,0.00,VWS V14.00,2013-01-28 07:47:00,
2013-01-28 02:52:00,41.4,33.0,29.26,NE,44,0.0,0.0,72,0.00,,SKC,0.00,VWS V14.00,2013-01-28 07:52:00,
2013-01-28 02:57:00,41.4,33.0,29.26,NE,44,0.0,0.0,72,0.00,,SKC,0.00,VWS V14.00,2013-01-28 07:57:00,
2013-01-28 03:02:00,41.4,33.0,29.29,NE,44,0.0,0.0,72,0.00,,SKC,0.00,VWS V14.00,2013-01-28 08:02:00,
2013-01-28 03:07:00,41.2,32.8,29.29,NE,44,0.0,0.0,72,0.00,,SKC,0.00,VWS V14.00,2013-01-28 08:07:00,
2013-01-28 03:12:00,41.2,32.8,29.29,NE,44,0.0,0.0,72,0.00,,SKC,0.00,VWS V14.00,2013-01-28 08:12:00,
2013-01-28 03:17:00,41.2,33.2,29.26,NE,44,0.0,0.0,73,0.00,,SKC,0.00,VWS V14.00,2013-01-28 08:17:00,
2013-01-28 03:22:00,41.0,32.7,29.26,NE,44,0.0,0.0,72,0.00,,SKC,0.00,VWS V14.00,2013-01-28 08:22:00,
2013-01-28 03:27:00,40.8,32.8,29.26,NE,44,0.0,0.0,73,0.00,,SKC,0.00,VWS V14.00,2013-01-28 08:27:00,
2013-01-28 03:32:00,40.8,32.8,29.26,NE,44,0.0,0.0,73,0.00,,SKC,0.00,VWS V14.00,2013-01-28 08:32:00,
2013-01-28 03:37:00,40.6,32.7,29.26,NE,44,0.0,0.0,73,0.00,,SKC,0.00,VWS V14.00,2013-01-28 08:37:00,
2013-01-28 03:42:00,40.5,32.5,29.26,NE,44,0.0,0.0,73,0.00,,SKC,0.00,VWS V14.00,2013-01-28 08:42:00,
2013-01-28 03:47:00,40.3,32.3,29.26,NE,44,0.0,0.0,73,0.00,,SKC,0.00,VWS V14.00,2013-01-28 08:47:00,
2013-01-28 03:52:00,40.3,32.3,29.26,NE,44,0.0,0.0,73,0.00,,SKC,0.00,VWS V14.00,2013-01-28 08:52:00,
2013-01-28 03:57:00,40.1,32.2,29.26,NE,44,0.0,0.0,73,0.00,,SKC,0.00,VWS V14.00,2013-01-28 08:57:00,
2013-01-28 04:02:00,39.9,31.6,29.26,NE,44,0.0,0.0,72,0.00,,SKC,0.00,VWS V14.00,2013-01-28 09:02:00,
2013-01-28 04:07:00,39.7,31.5,29.26,NE,44,0.0,0.0,72,0.00,,SKC,0.00,VWS V14.00,2013-01-28 09:07:00,
2013-01-28 04:12:00,39.6,31.6,29.26,NE,44,0.0,0.0,73,0.00,,SKC,0.00,VWS V14.00,2013-01-28 09:12:00,
2013-01-28 04:17:00,39.6,31.6,29.29,NE,44,0.0,0.0,73,0.00,,SKC,0.00,VWS V14.00,2013-01-28 09:17:00,
2013-01-28 04:22:00,39.6,31.6,29.29,NE,44,0.0,0.0,73,0.00,,SKC,0.00,VWS V14.00,2013-01-28 09:22:00,
2013-01-28 04:27:00,39.4,31.5,29.29,NE,44,0.0,0.0,73,0.00,,SKC,0.00,VWS V14.00,2013-01-28 09:27:00,
2013-01-28 04:32:00,39.4,31.5,29.29,NE,44,0.0,0.0,73,0.00,,SKC,0.00,VWS V14.00,2013-01-28 09:32:00,
2013-01-28 04:37:00,39.4,31.5,29.29,NE,44,0.0,0.0,73,0.00,,SKC,0.00,VWS V14.00,2013-01-28 09:37:00,
2013-01-28 04:42:00,39.4,31.5,29.29,NE,44,0.0,0.0,73,0.00,,SKC,0.00,VWS V14.00,2013-01-28 09:42:00,
2013-01-28 04:47:00,39.4,31.5,29.29,NE,44,0.0,0.0,73,0.00,,SKC,0.00,VWS V14.00,2013-01-28 09:47:00,
2013-01-28 04:52:00,39.4,31.8,29.29,NE,44,0.0,0.0,74,0.00,,SKC,0.00,VWS V14.00,2013-01-28 09:52:00,
2013-01-28 04:57:00,39.4,31.8,29.29,NE,44,0.0,0.0,74,0.00,,SKC,0.00,VWS V14.00,2013-01-28 09:57:00,
2013-01-28 05:02:00,39.6,32.0,29.29,NE,44,0.0,0.0,74,0.00,,SKC,0.00,VWS V14.00,2013-01-28 10:02:00,
2013-01-28 05:07:00,39.6,32.0,29.29,NE,44,0.0,0.0,74,0.00,,SKC,0.00,VWS V14.00,2013-01-28 10:07:00,
2013-01-28 05:12:00,39.7,32.1,29.29,NE,44,0.0,0.0,74,0.00,,SKC,0.00,VWS V14.00,2013-01-28 10:12:00,
2013-01-28 05:17:00,39.7,32.5,29.29,NE,44,0.0,0.0,75,0.00,,SKC,0.00,VWS V14.00,2013-01-28 10:17:00,
2013-01-28 05:22:00,39.9,32.7,29.29,NE,44,0.0,0.0,75,0.00,,SKC,0.00,VWS V14.00,2013-01-28 10:22:00,
2013-01-28 05:27:00,39.9,32.7,29.29,NE,44,0.0,0.0,75,0.00,,SKC,0.00,VWS V14.00,2013-01-28 10:27:00,
2013-01-28 05:32:00,40.1,32.8,29.29,NE,44,0.0,0.0,75,0.00,,SKC,0.00,VWS V14.00,2013-01-28 10:32:00,
2013-01-28 05:37:00,40.1,32.8,29.29,NE,44,0.0,0.0,75,0.00,,SKC,0.00,VWS V14.00,2013-01-28 10:37:00,
2013-01-28 05:42:00,40.3,33.0,29.29,NE,44,0.0,0.0,75,0.00,,SKC,0.00,VWS V14.00,2013-01-28 10:42:00,
2013-01-28 05:47:00,40.3,33.0,29.29,NE,44,0.0,0.0,75,0.00,,SKC,0.00,VWS V14.00,2013-01-28 10:47:00,
2013-01-28 05:52:00,40.3,33.0,29.29,NE,44,0.0,0.0,75,0.00,,SKC,0.00,VWS V14.00,2013-01-28 10:52:00,
2013-01-28 05:57:00,40.5,33.5,29.29,NE,44,0.0,0.0,76,0.00,,SKC,0.00,VWS V14.00,2013-01-28 10:57:00,
2013-01-28 06:02:00,40.5,33.5,29.29,NE,44,0.0,0.0,76,0.00,,SKC,0.00,VWS V14.00,2013-01-28 11:02:00,
2013-01-28 06:07:00,40.5,33.5,29.29,NE,44,0.0,0.0,76,0.00,,SKC,0.00,VWS V14.00,2013-01-28 11:07:00,
2013-01-28 06:12:00,40.6,33.7,29.29,NE,44,0.0,0.0,76,0.00,,SKC,0.00,VWS V14.00,2013-01-28 11:12:00,
2013-01-28 06:17:00,40.6,33.7,29.29,NE,44,0.0,0.0,76,0.00,,SKC,0.00,VWS V14.00,2013-01-28 11:17:00,
2013-01-28 06:23:00,40.6,33.7,29.29,NE,44,0.0,0.0,76,0.00,,SKC,0.00,VWS V14.00,2013-01-28 11:23:00,
2013-01-28 06:28:00,40.6,33.7,29.29,NE,44,0.0,0.0,76,0.00,,SKC,0.00,VWS V14.00,2013-01-28 11:28:00,
2013-01-28 06:33:00,40.8,33.8,29.29,NE,44,0.0,0.0,76,0.00,,SKC,0.00,VWS V14.00,2013-01-28 11:33:00,
2013-01-28 06:38:00,40.8,33.8,29.29,NE,44,0.0,0.0,76,0.00,,SKC,0.00,VWS V14.00,2013-01-28 11:38:00,
2013-01-28 06:43:00,41.0,34.0,29.29,NE,44,0.0,0.0,76,0.00,,SKC,0.00,VWS V14.00,2013-01-28 11:43:00,
2013-01-28 06:48:00,41.0,34.0,29.29,NE,44,0.0,0.0,76,0.00,,SKC,0.00,VWS V14.00,2013-01-28 11:48:00,
2013-01-28 06:53:00,41.0,34.0,29.29,NE,44,0.0,0.0,76,0.00,,SKC,0.00,VWS V14.00,2013-01-28 11:53:00,
2013-01-28 06:58:00,41.2,34.2,29.29,NE,44,0.0,0.0,76,0.00,,SKC,0.00,VWS V14.00,2013-01-28 11:58:00,
2013-01-28 07:03:00,41.2,34.2,29.29,NE,44,0.0,0.0,76,0.00,,SKC,0.00,VWS V14.00,2013-01-28 12:03:00,
2013-01-28 07:08:00,41.2,34.2,29.29,NE,44,0.0,0.0,76,0.00,,SKC,0.00,VWS V14.00,2013-01-28 12:08:00,
2013-01-28 07:13:00,41.2,34.2,29.29,NE,44,0.0,0.0,76,0.00,,SKC,0.00,VWS V14.00,2013-01-28 12:13:00,
2013-01-28 07:18:00,41.2,34.2,29.29,NE,44,0.0,0.0,76,0.00,,SKC,0.00,VWS V14.00,2013-01-28 12:18:00,
2013-01-28 07:23:00,41.0,34.0,29.29,NE,44,0.0,0.0,76,0.00,,SKC,0.00,VWS V14.00,2013-01-28 12:23:00,
2013-01-28 07:28:00,41.2,34.2,29.29,NE,44,0.0,0.0,76,0.00,,SKC,0.00,VWS V14.00,2013-01-28 12:28:00,
2013-01-28 07:33:00,41.2,34.5,29.29,NE,44,0.0,0.0,77,0.00,,SKC,0.00,VWS V14.00,2013-01-28 12:33:00,
2013-01-28 07:38:00,41.2,34.5,29.29,NE,44,0.0,0.0,77,0.00,,SKC,0.00,VWS V14.00,2013-01-28 12:38:00,
2013-01-28 07:43:00,41.0,34.3,29.29,NE,44,0.0,0.0,77,0.00,,SKC,0.00,VWS V14.00,2013-01-28 12:43:00,
2013-01-28 07:48:00,41.0,34.3,29.29,NE,44,0.0,0.0,77,0.00,,SKC,0.00,VWS V14.00,2013-01-28 12:48:00,
2013-01-28 07:53:00,41.0,34.3,29.29,NE,44,0.0,0.0,77,0.00,,SKC,0.00,VWS V14.00,2013-01-28 12:53:00,
2013-01-28 07:58:00,41.0,34.3,29.29,NE,44,0.0,0.0,77,0.00,,SKC,0.00,VWS V14.00,2013-01-28 12:58:00,
2013-01-28 08:03:00,41.2,34.5,29.29,NE,44,0.0,0.0,77,0.00,,SKC,0.00,VWS V14.00,2013-01-28 13:03:00,
2013-01-28 08:08:00,41.2,34.5,29.29,NE,44,0.0,0.0,77,0.00,,SKC,0.00,VWS V14.00,2013-01-28 13:08:00,
2013-01-28 08:13:00,41.2,34.5,29.29,NE,44,0.0,0.0,77,0.00,,SKC,0.00,VWS V14.00,2013-01-28 13:13:00,
2013-01-28 08:18:00,41.4,34.7,29.32,NE,44,0.0,0.0,77,0.00,,SKC,0.00,VWS V14.00,2013-01-28 13:18:00,
2013-01-28 08:23:00,41.5,34.9,29.32,NE,44,0.0,0.0,77,0.00,,SKC,0.00,VWS V14.00,2013-01-28 13:23:00,
2013-01-28 08:28:00,41.7,35.0,29.32,NE,44,0.0,0.0,77,0.00,,SKC,0.00,VWS V14.00,2013-01-28 13:28:00,
2013-01-28 08:33:00,41.9,35.2,29.29,NE,44,0.0,0.0,77,0.00,,SKC,0.00,VWS V14.00,2013-01-28 13:33:00,
2013-01-28 08:38:00,41.9,35.2,29.29,NE,44,0.0,0.0,77,0.00,,SKC,0.00,VWS V14.00,2013-01-28 13:38:00,
2013-01-28 08:43:00,42.1,35.7,29.29,NE,44,0.0,0.0,78,0.00,,SKC,0.00,VWS V14.00,2013-01-28 13:43:00,
2013-01-28 08:48:00,42.3,35.9,29.29,NE,44,0.0,0.0,78,0.00,,SKC,0.00,VWS V14.00,2013-01-28 13:48:00,
2013-01-28 08:53:00,42.6,36.2,29.29,NE,44,0.0,0.0,78,0.00,,SKC,0.00,VWS V14.00,2013-01-28 13:53:00,
2013-01-28 08:58:00,42.8,36.4,29.29,NE,44,0.0,0.0,78,0.00,,SKC,0.00,VWS V14.00,2013-01-28 13:58:00,
2013-01-28 09:03:00,43.2,36.8,29.29,NE,44,0.0,0.0,78,0.00,,SKC,0.00,VWS V14.00,2013-01-28 14:03:00,
2013-01-28 09:08:00,43.3,37.0,29.29,NE,44,0.0,0.0,78,0.00,,SKC,0.00,VWS V14.00,2013-01-28 14:08:00,
2013-01-28 09:13:00,43.5,37.1,29.29,NE,44,0.0,0.0,78,0.00,,SKC,0.00,VWS V14.00,2013-01-28 14:13:00,
2013-01-28 09:18:00,43.9,37.5,29.29,NE,44,0.0,0.0,78,0.00,,SKC,0.00,VWS V14.00,2013-01-28 14:18:00,
2013-01-28 09:23:00,44.2,37.8,29.29,NE,44,0.0,0.0,78,0.00,,SKC,0.00,VWS V14.00,2013-01-28 14:23:00,
2013-01-28 09:28:00,44.6,38.2,29.29,NE,44,0.0,0.0,78,0.00,,SKC,0.00,VWS V14.00,2013-01-28 14:28:00,
2013-01-28 09:33:00,45.1,38.7,29.29,NE,44,0.0,0.0,78,0.00,,SKC,0.00,VWS V14.00,2013-01-28 14:33:00,
2013-01-28 09:38:00,45.5,39.0,29.29,NE,44,0.0,0.0,78,0.00,,SKC,0.00,VWS V14.00,2013-01-28 14:38:00,
2013-01-28 09:43:00,45.9,39.4,29.29,NE,42,0.0,0.0,78,0.00,,SKC,0.00,VWS V14.00,2013-01-28 14:43:00,
2013-01-28 09:48:00,46.4,39.6,29.29,NE,42,0.0,0.0,77,0.00,,SKC,0.00,VWS V14.00,2013-01-28 14:48:00,
2013-01-28 09:53:00,46.8,39.9,29.29,NE,43,0.0,0.0,77,0.00,,SKC,0.00,VWS V14.00,2013-01-28 14:53:00,
2013-01-28 09:58:00,47.1,40.0,29.29,NE,43,0.0,0.0,76,0.00,,SKC,0.00,VWS V14.00,2013-01-28 14:58:00,
2013-01-28 10:03:00,46.9,39.8,29.29,NE,43,0.0,0.0,76,0.00,,SKC,0.00,VWS V14.00,2013-01-28 15:03:00,
2013-01-28 10:08:00,47.3,40.1,29.29,NE,43,0.0,0.0,76,0.00,,SKC,0.00,VWS V14.00,2013-01-28 15:08:00,
2013-01-28 10:13:00,47.7,40.1,29.29,NE,43,0.0,0.0,75,0.00,,SKC,0.00,VWS V14.00,2013-01-28 15:13:00,
2013-01-28 10:18:00,48.0,40.5,29.29,NE,43,0.0,0.0,75,0.00,,SKC,0.00,VWS V14.00,2013-01-28 15:18:00,
2013-01-28 10:23:00,48.4,40.5,29.29,NE,43,0.0,0.0,74,0.00,,SKC,0.00,VWS V14.00,2013-01-28 15:23:00,
2013-01-28 10:28:00,48.6,40.7,29.29,NW,325,0.0,0.0,74,0.00,,SKC,0.00,VWS V14.00,2013-01-28 15:28:00,
2013-01-28 10:33:00,48.7,40.5,29.29,NNW,332,0.0,0.0,73,0.00,,SKC,0.00,VWS V14.00,2013-01-28 15:33:00,
2013-01-28 10:38:00,48.9,40.7,29.29,NNW,332,0.0,0.0,73,0.00,,SKC,0.00,VWS V14.00,2013-01-28 15:38:00,
2013-01-28 10:43:00,49.1,40.5,29.29,NNW,328,0.0,0.0,72,0.00,,SKC,0.00,VWS V14.00,2013-01-28 15:43:00,
2013-01-28 10:48:00,48.9,39.9,29.29,NW,306,0.0,4.0,71,0.00,,SKC,0.00,VWS V14.00,2013-01-28 15:48:00,
2013-01-28 10:53:00,48.9,39.9,29.29,WNW,303,0.0,0.0,71,0.00,,SKC,0.00,VWS V14.00,2013-01-28 15:53:00,
2013-01-28 10:58:00,48.9,39.9,29.29,NW,320,0.0,3.6,71,0.00,,SKC,0.00,VWS V14.00,2013-01-28 15:58:00,
2013-01-28 11:03:00,49.3,40.3,29.29,SW,216,0.0,0.0,71,0.00,,SKC,0.00,VWS V14.00,2013-01-28 16:03:00,
2013-01-28 11:08:00,49.5,40.5,29.29,SW,221,0.0,0.0,71,0.00,,SKC,0.00,VWS V14.00,2013-01-28 16:08:00,
2013-01-28 11:13:00,49.8,40.8,29.29,SSW,213,0.0,0.0,71,0.00,,SKC,0.00,VWS V14.00,2013-01-28 16:13:00,
2013-01-28 11:18:00,50.5,41.5,29.26,NW,324,0.0,0.0,71,0.00,,SKC,0.00,VWS V14.00,2013-01-28 16:18:00,
2013-01-28 11:23:00,50.9,41.5,29.26,SSE,153,0.0,4.0,70,0.00,,SKC,0.00,VWS V14.00,2013-01-28 16:23:00,
2013-01-28 11:28:00,51.1,40.5,29.26,NNW,345,0.0,4.0,67,0.00,,SKC,0.00,VWS V14.00,2013-01-28 16:28:00,
2013-01-28 11:33:00,51.3,40.7,29.26,WSW,253,0.0,4.0,67,0.00,,SKC,0.00,VWS V14.00,2013-01-28 16:33:00,
2013-01-28 11:38:00,51.6,41.4,29.26,NW,321,0.0,4.0,68,0.00,,SKC,0.00,VWS V14.00,2013-01-28 16:38:00,
2013-01-28 11:43:00,51.8,41.2,29.26,NNW,340,0.0,0.0,67,0.00,,SKC,0.00,VWS V14.00,2013-01-28 16:43:00,
2013-01-28 11:49:00,52.0,41.4,29.26,SSE,159,2.7,4.0,67,0.00,,SKC,0.00,VWS V14.00,2013-01-28 16:49:00,
2013-01-28 11:54:00,52.2,41.9,29.26,WSW,244,0.0,3.1,68,0.00,,SKC,0.00,VWS V14.00,2013-01-28 16:54:00,
2013-01-28 11:59:00,52.3,41.3,29.26,West,260,3.8,4.0,66,0.00,,SKC,0.00,VWS V14.00,2013-01-28 16:59:00,
2013-01-28 12:04:00,52.2,40.8,29.26,NNW,330,5.9,5.9,65,0.00,,SKC,0.00,VWS V14.00,2013-01-28 17:04:00,
2013-01-28 12:09:00,52.5,40.7,29.26,NW,326,4.3,4.9,64,0.00,,SKC,0.00,VWS V14.00,2013-01-28 17:09:00,
2013-01-28 12:14:00,52.9,41.5,29.26,WSW,239,0.0,4.0,65,0.00,,SKC,0.00,VWS V14.00,2013-01-28 17:14:00,
2013-01-28 12:19:00,53.2,42.2,29.23,SW,217,3.8,4.0,66,0.00,,SKC,0.00,VWS V14.00,2013-01-28 17:19:00,
2013-01-28 12:24:00,53.8,42.7,29.23,NW,321,0.0,4.5,66,0.00,,SKC,0.00,VWS V14.00,2013-01-28 17:24:00,
2013-01-28 12:29:00,54.3,42.8,29.23,NW,312,4.8,4.8,65,0.00,,SKC,0.00,VWS V14.00,2013-01-28 17:29:00,
2013-01-28 12:34:00,54.7,42.8,29.23,WNW,297,0.0,6.3,64,0.00,,SKC,0.00,VWS V14.00,2013-01-28 17:34:00,
2013-01-28 12:39:00,54.9,42.5,29.23,NW,318,4.3,6.3,63,0.00,,SKC,0.00,VWS V14.00,2013-01-28 17:39:00,
2013-01-28 12:44:00,55.2,42.9,29.23,West,272,0.0,4.9,63,0.00,,SKC,0.00,VWS V14.00,2013-01-28 17:44:00,
2013-01-28 12:49:00,55.6,42.8,29.23,WNW,302,4.3,4.9,62,0.00,,SKC,0.00,VWS V14.00,2013-01-28 17:49:00,
2013-01-28 12:54:00,55.8,43.0,29.23,NW,322,3.2,6.3,62,0.00,,SKC,0.00,VWS V14.00,2013-01-28 17:54:00,
2013-01-28 12:59:00,55.8,42.5,29.23,NNE,20,3.2,6.3,61,0.00,,SKC,0.00,VWS V14.00,2013-01-28 17:59:00,
2013-01-28 13:04:00,55.9,42.3,29.23,WNW,299,3.2,5.8,60,0.00,,SKC,0.00,VWS V14.00,2013-01-28 18:04:00,
2013-01-28 13:09:00,55.8,41.2,29.23,West,276,3.2,6.3,58,0.00,,SKC,0.00,VWS V14.00,2013-01-28 18:09:00,
2013-01-28 13:14:00,55.9,41.8,29.23,NW,307,0.0,4.9,59,0.00,,SKC,0.00,VWS V14.00,2013-01-28 18:14:00,
2013-01-28 13:19:00,56.5,43.2,29.21,NW,318,4.3,4.9,61,0.00,,SKC,0.00,VWS V14.00,2013-01-28 18:19:00,
2013-01-28 13:24:00,57.0,42.8,29.21,NW,312,4.8,4.8,59,0.00,,SKC,0.00,VWS V14.00,2013-01-28 18:24:00,
2013-01-28 13:29:00,57.2,43.0,29.21,SW,235,0.0,4.9,59,0.00,,SKC,0.00,VWS V14.00,2013-01-28 18:29:00,
2013-01-28 13:34:00,57.4,43.2,29.21,West,268,0.0,0.0,59,0.00,,SKC,0.00,VWS V14.00,2013-01-28 18:34:00,
2013-01-28 13:39:00,57.6,43.8,29.21,WNW,292,0.0,0.0,60,0.00,,SKC,0.00,VWS V14.00,2013-01-28 18:39:00,
2013-01-28 13:44:00,57.7,44.0,29.21,NW,319,3.2,4.0,60,0.00,,SKC,0.00,VWS V14.00,2013-01-28 18:44:00,
2013-01-28 13:49:00,58.1,43.9,29.21,NW,314,2.7,4.0,59,0.00,,SKC,0.00,VWS V14.00,2013-01-28 18:49:00,
2013-01-28 13:54:00,58.5,44.2,29.21,SW,236,3.2,4.0,59,0.00,,SKC,0.00,VWS V14.00,2013-01-28 18:54:00,
2013-01-28 13:59:00,59.2,44.9,29.21,SW,221,3.2,4.9,59,0.00,,SKC,0.00,VWS V14.00,2013-01-28 18:59:00,
2013-01-28 14:04:00,59.4,44.1,29.21,SW,230,2.7,4.0,57,0.00,,SKC,0.00,VWS V14.00,2013-01-28 19:04:00,
2013-01-28 14:09:00,59.2,44.0,29.21,SW,235,0.0,4.5,57,0.00,,SKC,0.00,VWS V14.00,2013-01-28 19:09:00,
2013-01-28 14:14:00,58.8,43.6,29.21,WSW,237,0.0,5.4,57,0.00,,SKC,0.00,VWS V14.00,2013-01-28 19:14:00,
2013-01-28 14:19:00,58.5,43.3,29.21,SW,229,3.8,5.4,57,0.00,,SKC,0.00,VWS V14.00,2013-01-28 19:19:00,
2013-01-28 14:24:00,58.5,43.8,29.21,WNW,300,0.0,3.1,58,0.00,,SKC,0.00,VWS V14.00,2013-01-28 19:24:00,
2013-01-28 14:29:00,58.6,43.5,29.21,WNW,295,3.8,5.8,57,0.00,,SKC,0.00,VWS V14.00,2013-01-28 19:29:00,
2013-01-28 14:34:00,59.2,43.5,29.18,WSW,237,3.8,6.3,56,0.00,,SKC,0.00,VWS V14.00,2013-01-28 19:34:00,
2013-01-28 14:39:00,59.2,44.0,29.18,SW,229,0.0,6.3,57,0.00,,SKC,0.00,VWS V14.00,2013-01-28 19:39:00,
2013-01-28 14:44:00,59.2,44.4,29.18,NW,318,2.7,2.7,58,0.00,,SKC,0.00,VWS V14.00,2013-01-28 19:44:00,
2013-01-28 14:49:00,59.4,44.1,29.18,SW,222,0.0,3.6,57,0.00,,SKC,0.00,VWS V14.00,2013-01-28 19:49:00,
2013-01-28 14:54:00,59.4,44.6,29.18,SW,224,0.0,5.4,58,0.00,,SKC,0.00,VWS V14.00,2013-01-28 19:54:00,
2013-01-28 14:59:00,59.5,44.8,29.18,SW,230,3.2,5.4,58,0.00,,SKC,0.00,VWS V14.00,2013-01-28 19:59:00,
2013-01-28 15:04:00,59.4,44.1,29.18,WSW,243,0.0,7.2,57,0.00,,SKC,0.00,VWS V14.00,2013-01-28 20:04:00,
2013-01-28 15:09:00,59.0,43.8,29.18,WSW,239,0.0,7.2,57,0.00,,SKC,0.00,VWS V14.00,2013-01-28 20:09:00,
2013-01-28 15:14:00,59.0,44.3,29.18,WSW,241,0.0,0.0,58,0.00,,SKC,0.00,VWS V14.00,2013-01-28 20:14:00,
2013-01-28 15:19:00,58.8,44.1,29.18,NW,304,4.3,4.3,58,0.00,,SKC,0.00,VWS V14.00,2013-01-28 20:19:00,
2013-01-28 15:24:00,58.6,43.9,29.18,NW,310,0.0,3.6,58,0.00,,SKC,0.00,VWS V14.00,2013-01-28 20:24:00,
2013-01-28 15:29:00,58.6,44.4,29.18,SW,226,0.0,4.0,59,0.00,,SKC,0.00,VWS V14.00,2013-01-28 20:29:00,
2013-01-28 15:34:00,58.6,44.4,29.18,WNW,298,0.0,0.0,59,0.00,,SKC,0.00,VWS V14.00,2013-01-28 20:34:00,
2013-01-28 15:39:00,59.0,44.7,29.18,SW,229,3.2,4.0,59,0.00,,SKC,0.00,VWS V14.00,2013-01-28 20:39:00,
2013-01-28 15:44:00,59.2,44.9,29.18,SW,233,0.0,3.1,59,0.00,,SKC,0.00,VWS V14.00,2013-01-28 20:44:00,
2013-01-28 15:49:00,59.0,44.7,29.18,SW,234,2.7,5.4,59,0.00,,SKC,0.00,VWS V14.00,2013-01-28 20:49:00,
2013-01-28 15:54:00,58.8,45.0,29.18,WSW,249,2.7,4.0,60,0.00,,SKC,0.00,VWS V14.00,2013-01-28 20:54:00,
2013-01-28 15:59:00,59.0,44.7,29.18,SW,221,0.0,4.0,59,0.00,,SKC,0.00,VWS V14.00,2013-01-28 20:59:00,
2013-01-28 16:04:00,58.8,45.0,29.18,SW,215,2.7,4.9,60,0.00,,SKC,0.00,VWS V14.00,2013-01-28 21:04:00,
2013-01-28 16:09:00,59.0,45.2,29.18,SW,229,0.0,6.3,60,0.00,,SKC,0.00,VWS V14.00,2013-01-28 21:09:00,
2013-01-28 16:14:00,59.2,45.3,29.18,SW,222,7.0,7.0,60,0.00,,SKC,0.00,VWS V14.00,2013-01-28 21:14:00,
2013-01-28 16:19:00,59.2,45.3,29.18,SW,230,0.0,5.8,60,0.00,,SKC,0.00,VWS V14.00,2013-01-28 21:19:00,
2013-01-28 16:24:00,59.2,45.8,29.18,SW,229,0.0,4.9,61,0.00,,SKC,0.00,VWS V14.00,2013-01-28 21:24:00,
2013-01-28 16:29:00,59.0,45.6,29.18,SW,226,3.2,8.1,61,0.00,,SKC,0.00,VWS V14.00,2013-01-28 21:29:00,
2013-01-28 16:34:00,58.8,45.4,29.18,WSW,247,3.8,6.3,61,0.00,,SKC,0.00,VWS V14.00,2013-01-28 21:34:00,
2013-01-28 16:39:00,58.5,45.5,29.18,WSW,245,0.0,6.3,62,0.00,,SKC,0.00,VWS V14.00,2013-01-28 21:39:00,
2013-01-28 16:44:00,58.5,45.5,29.18,WSW,239,0.0,5.4,62,0.00,,SKC,0.00,VWS V14.00,2013-01-28 21:44:00,
2013-01-28 16:49:00,58.3,45.3,29.18,SW,221,0.0,5.4,62,0.00,,SKC,0.00,VWS V14.00,2013-01-28 21:49:00,
2013-01-28 16:54:00,58.1,45.6,29.18,SW,216,0.0,4.9,63,0.00,,SKC,0.00,VWS V14.00,2013-01-28 21:54:00,
2013-01-28 16:59:00,58.1,45.6,29.18,NW,321,0.0,5.8,63,0.00,,SKC,0.00,VWS V14.00,2013-01-28 21:59:00,
2013-01-28 17:04:00,57.9,45.4,29.18,WSW,246,0.0,0.0,63,0.00,,SKC,0.00,VWS V14.00,2013-01-28 22:04:00,
2013-01-28 17:09:00,57.7,45.2,29.18,SW,234,0.0,0.0,63,0.00,,SKC,0.00,VWS V14.00,2013-01-28 22:09:00,
2013-01-28 17:14:00,57.4,44.9,29.18,WSW,245,4.3,4.3,63,0.00,,SKC,0.00,VWS V14.00,2013-01-28 22:14:00,
2013-01-28 17:19:00,57.2,44.7,29.18,SW,231,3.2,5.4,63,0.00,,SKC,0.00,VWS V14.00,2013-01-28 22:19:00,
2013-01-28 17:24:00,57.0,45.0,29.18,SW,225,3.2,5.8,64,0.00,,SKC,0.00,VWS V14.00,2013-01-28 22:24:00,
2013-01-28 17:29:00,56.8,44.8,29.18,South,188,7.0,7.0,64,0.00,,SKC,0.00,VWS V14.00,2013-01-28 22:29:00,
2013-01-28 17:34:00,56.7,45.0,29.18,SSW,197,4.3,4.9,65,0.00,,SKC,0.00,VWS V14.00,2013-01-28 22:34:00,
2013-01-28 17:39:00,56.5,44.9,29.18,SW,231,0.0,4.9,65,0.00,,SKC,0.00,VWS V14.00,2013-01-28 22:39:00,
2013-01-28 17:44:00,56.3,44.7,29.18,WSW,238,0.0,0.0,65,0.00,,SKC,0.00,VWS V14.00,2013-01-28 22:44:00,
2013-01-28 17:50:00,56.1,44.5,29.18,SW,226,0.0,3.6,65,0.00,,SKC,0.00,VWS V14.00,2013-01-28 22:50:00,
2013-01-28 17:55:00,56.1,44.9,29.18,SW,234,0.0,0.0,66,0.00,,SKC,0.00,VWS V14.00,2013-01-28 22:55:00,
2013-01-28 18:00:00,55.9,44.8,29.18,WSW,240,6.4,6.4,66,0.00,,SKC,0.00,VWS V14.00,2013-01-28 23:00:00,
2013-01-28 18:05:00,55.8,44.6,29.18,SW,234,0.0,4.0,66,0.00,,SKC,0.00,VWS V14.00,2013-01-28 23:05:00,
2013-01-28 18:10:00,55.8,44.6,29.18,SW,223,0.0,4.0,66,0.00,,SKC,0.00,VWS V14.00,2013-01-28 23:10:00,
2013-01-28 18:15:00,55.6,44.4,29.18,South,176,0.0,0.0,66,0.00,,SKC,0.00,VWS V14.00,2013-01-28 23:15:00,
2013-01-28 18:20:00,55.6,44.4,29.18,South,176,0.0,0.0,66,0.00,,SKC,0.00,VWS V14.00,2013-01-28 23:20:00,
2013-01-28 18:25:00,55.4,44.6,29.18,SW,222,0.0,0.0,67,0.00,,SKC,0.00,VWS V14.00,2013-01-28 23:25:00,
2013-01-28 18:30:00,55.4,44.6,29.18,WSW,246,0.0,0.0,67,0.00,,SKC,0.00,VWS V14.00,2013-01-28 23:30:00,
2013-01-28 18:35:00,55.2,44.5,29.18,SSW,206,0.0,0.0,67,0.00,,SKC,0.00,VWS V14.00,2013-01-28 23:35:00,
2013-01-28 18:40:00,55.2,44.9,29.18,SSW,204,0.0,0.0,68,0.00,,SKC,0.00,VWS V14.00,2013-01-28 23:40:00,
2013-01-28 18:45:00,55.2,44.9,29.18,SSW,204,0.0,0.0,68,0.00,,SKC,0.00,VWS V14.00,2013-01-28 23:45:00,
2013-01-28 18:50:00,55.0,44.7,29.18,SSW,204,0.0,0.0,68,0.00,,SKC,0.00,VWS V14.00,2013-01-28 23:50:00,
2013-01-28 18:55:00,55.0,44.7,29.18,SSW,204,0.0,0.0,68,0.00,,SKC,0.00,VWS V14.00,2013-01-28 23:55:00,
2013-01-28 19:00:00,54.9,44.5,29.18,SSW,204,0.0,0.0,68,0.00,,SKC,0.00,VWS V14.00,2013-01-29 00:00:00,
2013-01-28 19:05:00,54.7,44.3,29.18,SW,234,0.0,0.0,68,0.00,,SKC,0.00,VWS V14.00,2013-01-29 00:05:00,
2013-01-28 19:10:00,54.7,44.3,29.18,SSW,211,0.0,0.0,68,0.00,,SKC,0.00,VWS V14.00,2013-01-29 00:10:00,
2013-01-28 19:15:00,54.5,44.2,29.18,SSW,209,0.0,0.0,68,0.00,,SKC,0.00,VWS V14.00,2013-01-29 00:15:00,
2013-01-28 19:20:00,54.5,44.5,29.18,SSW,209,0.0,0.0,69,0.00,,SKC,0.00,VWS V14.00,2013-01-29 00:20:00,
2013-01-28 19:25:00,54.5,44.5,29.18,SSE,150,0.0,0.0,69,0.00,,SKC,0.00,VWS V14.00,2013-01-29 00:25:00,
2013-01-28 19:30:00,54.5,44.5,29.18,SSE,150,0.0,0.0,69,0.00,,SKC,0.00,VWS V14.00,2013-01-29 00:30:00,
2013-01-28 19:35:00,54.3,44.4,29.18,SSE,150,0.0,0.0,69,0.00,,SKC,0.00,VWS V14.00,2013-01-29 00:35:00,
2013-01-28 19:40:00,54.3,44.4,29.18,SSE,150,0.0,0.0,69,0.00,,SKC,0.00,VWS V14.00,2013-01-29 00:40:00,
2013-01-28 19:45:00,54.3,44.4,29.18,SSE,150,0.0,0.0,69,0.00,,SKC,0.00,VWS V14.00,2013-01-29 00:45:00,
2013-01-28 19:50:00,54.3,44.4,29.18,SSE,150,0.0,0.0,69,0.00,,SKC,0.00,VWS V14.00,2013-01-29 00:50:00,
2013-01-28 19:55:00,54.3,44.4,29.18,SSE,150,0.0,0.0,69,0.00,,SKC,0.00,VWS V14.00,2013-01-29 00:55:00,
2013-01-28 20:00:00,54.3,44.4,29.18,SSE,150,0.0,0.0,69,0.00,,SKC,0.00,VWS V14.00,2013-01-29 01:00:00,
2013-01-28 20:05:00,54.3,44.8,29.18,South,178,0.0,0.0,70,0.00,,SKC,0.00,VWS V14.00,2013-01-29 01:05:00,
2013-01-28 20:10:00,54.1,44.6,29.18,South,178,0.0,0.0,70,0.00,,SKC,0.00,VWS V14.00,2013-01-29 01:10:00,
2013-01-28 20:15:00,54.1,44.6,29.18,South,178,0.0,0.0,70,0.00,,SKC,0.00,VWS V14.00,2013-01-29 01:15:00,
2013-01-28 20:20:00,54.1,44.6,29.18,SSE,167,0.0,0.0,70,0.00,,SKC,0.00,VWS V14.00,2013-01-29 01:20:00,
2013-01-28 20:25:00,54.1,44.6,29.18,SSE,167,0.0,0.0,70,0.00,,SKC,0.00,VWS V14.00,2013-01-29 01:25:00,
2013-01-28 20:30:00,54.0,44.4,29.18,SSE,167,0.0,0.0,70,0.00,,SKC,0.00,VWS V14.00,2013-01-29 01:30:00,
2013-01-28 20:35:00,54.0,44.4,29.18,SSE,167,0.0,0.0,70,0.00,,SKC,0.00,VWS V14.00,2013-01-29 01:35:00,
2013-01-28 20:40:00,54.0,44.4,29.18,SSE,167,0.0,0.0,70,0.00,,SKC,0.00,VWS V14.00,2013-01-29 01:40:00,
2013-01-28 20:45:00,54.0,44.4,29.18,SSE,167,0.0,0.0,70,0.00,,SKC,0.00,VWS V14.00,2013-01-29 01:45:00,
2013-01-28 20:50:00,54.0,44.4,29.18,SSE,167,0.0,0.0,70,0.00,,SKC,0.00,VWS V14.00,2013-01-29 01:50:00,
2013-01-28 20:55:00,54.0,44.8,29.18,SSE,167,0.0,0.0,71,0.00,,SKC,0.00,VWS V14.00,2013-01-29 01:55:00,
2013-01-28 21:00:00,54.0,44.8,29.18,SSE,167,0.0,0.0,71,0.00,,SKC,0.00,VWS V14.00,2013-01-29 02:00:00,
2013-01-28 21:05:00,54.0,44.8,29.18,SSE,167,0.0,0.0,71,0.00,,SKC,0.00,VWS V14.00,2013-01-29 02:05:00,
2013-01-28 21:10:00,53.8,44.6,29.18,SSE,167,0.0,0.0,71,0.00,,SKC,0.00,VWS V14.00,2013-01-29 02:10:00,
2013-01-28 21:15:00,53.8,44.6,29.18,SSE,167,0.0,0.0,71,0.00,,SKC,0.00,VWS V14.00,2013-01-29 02:15:00,
2013-01-28 21:20:00,53.8,44.6,29.18,SSE,167,0.0,0.0,71,0.00,,SKC,0.00,VWS V14.00,2013-01-29 02:20:00,
2013-01-28 21:25:00,53.8,44.6,29.18,SSE,167,0.0,0.0,71,0.00,,SKC,0.00,VWS V14.00,2013-01-29 02:25:00,
2013-01-28 21:30:00,53.8,44.6,29.18,SSE,167,0.0,0.0,71,0.00,,SKC,0.00,VWS V14.00,2013-01-29 02:30:00,
2013-01-28 21:35:00,53.8,44.6,29.18,SSE,167,0.0,0.0,71,0.00,,SKC,0.00,VWS V14.00,2013-01-29 02:35:00,
2013-01-28 21:40:00,53.8,44.6,29.18,SSE,167,0.0,0.0,71,0.00,,SKC,0.00,VWS V14.00,2013-01-29 02:40:00,
2013-01-28 21:45:00,53.6,44.4,29.18,SW,221,0.0,0.0,71,0.00,,SKC,0.00,VWS V14.00,2013-01-29 02:45:00,
2013-01-28 21:50:00,53.8,44.6,29.18,WSW,239,0.0,0.0,71,0.00,,SKC,0.00,VWS V14.00,2013-01-29 02:50:00,
2013-01-28 21:55:00,53.8,44.6,29.18,SSW,197,0.0,0.0,71,0.00,,SKC,0.00,VWS V14.00,2013-01-29 02:55:00,
2013-01-28 22:00:00,53.8,45.0,29.18,SW,226,0.0,0.0,72,0.00,,SKC,0.00,VWS V14.00,2013-01-29 03:00:00,
2013-01-28 22:05:00,53.6,44.8,29.18,SW,226,0.0,0.0,72,0.00,,SKC,0.00,VWS V14.00,2013-01-29 03:05:00,
2013-01-28 22:10:00,53.6,44.8,29.18,SW,227,0.0,0.0,72,0.00,,SKC,0.00,VWS V14.00,2013-01-29 03:10:00,
2013-01-28 22:15:00,53.6,44.8,29.18,SW,226,0.0,0.0,72,0.00,,SKC,0.00,VWS V14.00,2013-01-29 03:15:00,
2013-01-28 22:20:00,53.6,44.8,29.18,SW,226,0.0,0.0,72,0.00,,SKC,0.00,VWS V14.00,2013-01-29 03:20:00,
2013-01-28 22:25:00,53.6,44.8,29.18,SW,226,0.0,0.0,72,0.00,,SKC,0.00,VWS V14.00,2013-01-29 03:25:00,
2013-01-28 22:30:00,53.6,44.8,29.18,SW,226,0.0,0.0,72,0.00,,SKC,0.00,VWS V14.00,2013-01-29 03:30:00,
2013-01-28 22:35:00,53.6,44.8,29.18,SW,227,0.0,0.0,72,0.00,,SKC,0.00,VWS V14.00,2013-01-29 03:35:00,
2013-01-28 22:40:00,53.6,44.8,29.18,SW,226,0.0,0.0,72,0.00,,SKC,0.00,VWS V14.00,2013-01-29 03:40:00,
2013-01-28 22:45:00,53.6,44.8,29.18,SW,226,0.0,0.0,72,0.00,,SKC,0.00,VWS V14.00,2013-01-29 03:45:00,
2013-01-28 22:50:00,53.4,44.6,29.18,SW,227,0.0,0.0,72,0.00,,SKC,0.00,VWS V14.00,2013-01-29 03:50:00,
2013-01-28 22:55:00,53.4,45.0,29.18,SW,226,0.0,0.0,73,0.00,,SKC,0.00,VWS V14.00,2013-01-29 03:55:00,
2013-01-28 23:00:00,53.4,45.0,29.18,SW,226,0.0,0.0,73,0.00,,SKC,0.00,VWS V14.00,2013-01-29 04:00:00,
2013-01-28 23:05:00,53.4,45.0,29.18,SW,226,0.0,0.0,73,0.00,,SKC,0.00,VWS V14.00,2013-01-29 04:05:00,
2013-01-28 23:10:00,53.4,45.0,29.18,SW,226,0.0,0.0,73,0.00,,SKC,0.00,VWS V14.00,2013-01-29 04:10:00,
2013-01-28 23:15:00,53.4,45.0,29.18,South,177,0.0,0.0,73,0.00,,SKC,0.00,VWS V14.00,2013-01-29 04:15:00,
2013-01-28 23:20:00,53.4,45.0,29.18,SSW,203,0.0,0.0,73,0.00,,SKC,0.00,VWS V14.00,2013-01-29 04:20:00,
2013-01-28 23:25:00,53.2,44.8,29.18,SSW,198,0.0,0.0,73,0.00,,SKC,0.00,VWS V14.00,2013-01-29 04:25:00,
2013-01-28 23:31:00,53.2,44.8,29.18,SSW,198,0.0,0.0,73,0.00,,SKC,0.00,VWS V14.00,2013-01-29 04:31:00,
2013-01-28 23:36:00,53.1,44.7,29.18,SSW,198,0.0,0.0,73,0.00,,SKC,0.00,VWS V14.00,2013-01-29 04:36:00,
2013-01-28 23:41:00,53.1,44.7,29.18,SSW,198,0.0,0.0,73,0.00,,SKC,0.00,VWS V14.00,2013-01-29 04:41:00,
2013-01-28 23:46:00,53.1,44.7,29.18,SSW,198,0.0,0.0,73,0.00,,SKC,0.00,VWS V14.00,2013-01-29 04:46:00,
2013-01-28 23:51:00,53.1,44.7,29.18,SSW,198,0.0,0.0,73,0.00,,SKC,0.00,VWS V14.00,2013-01-29 04:51:00,
2013-01-28 23:56:00,53.1,44.7,29.18,SSW,198,0.0,0.0,73,0.00,,SKC,0.00,VWS V14.00,2013-01-29 04:56:00,